Date String (YYYY-MM-DD hh:mm:ss) UTC,Instrument flags,Ambient pressure (hPa),Sample flow (lpm),Bypass flow (lpm),Sample temperature (°C),Ambient temperature (°C),ASC tube jacket temperature (°C),LED temperature (°C),Box temperature (°C),Sample RH (%),Span deviation,Mass concentration (μg/m³),Mass concentration (μg/m³),Mass concentration (μg/m³)
DateTimeUTC,F1_M11,P_M11,Q1_M11,Q2_M11,T1_M11,T2_M11,T3_M11,T4_M11,T5_M11,U1_M11,ZSPAN_M11,X0_M11,X2_M11,X1_M11
2023-02-07 00:00:00,,0823.7,5.03,0.00,22.9,21.4,00.0,31.7,24.7,10.7,0000.0,0003.37,0001.42,0000.98
2023-02-07 00:01:00,,0823.6,4.98,0.00,22.8,21.4,00.0,31.7,24.7,10.8,0000.0,0004.60,0001.48,0000.99
2023-02-07 00:02:00,,0823.7,4.96,0.00,22.8,21.4,00.0,31.7,24.7,10.8,0000.0,0004.58,0001.45,0000.99
2023-02-07 00:03:00,,0823.7,5.03,0.00,22.8,21.3,00.0,31.7,24.6,10.8,0000.0,0004.53,0001.43,0000.97
2023-02-07 00:04:00,,0823.7,5.03,0.00,22.8,21.3,00.0,31.7,24.6,10.8,0000.0,0004.76,0001.44,0000.97
2023-02-07 00:05:00,,0823.7,4.98,0.00,22.8,21.3,00.0,31.7,24.6,10.9,0000.0,0005.09,0001.52,0000.98
2023-02-07 00:06:00,,0823.7,5.01,0.00,22.8,21.3,00.0,31.7,24.6,10.9,0000.0,0005.34,0001.55,0000.98
2023-02-07 00:07:00,,0823.7,5.04,0.00,22.8,21.3,00.0,31.7,24.6,11.0,0000.0,0006.28,0001.59,0000.99
2023-02-07 00:08:00,,0823.7,4.96,0.00,22.8,21.3,00.0,31.7,24.6,10.9,0000.0,0006.65,0001.56,0001.00
2023-02-07 00:09:00,,0823.8,5.08,0.00,22.8,21.2,00.0,31.7,24.6,11.0,0000.0,0006.62,0001.54,0000.98
2023-02-07 00:10:00,,0823.8,5.00,0.00,22.8,21.1,00.0,31.7,24.6,10.9,0000.0,0006.71,0001.51,0000.97
2023-02-07 00:11:00,,0823.9,4.97,0.00,22.7,21.1,00.0,31.6,24.5,10.9,0000.0,0006.61,0001.48,0000.97
2023-02-07 00:12:00,,0823.9,5.03,0.00,22.7,21.1,00.0,31.6,24.5,11.1,0000.0,0005.54,0001.43,0000.96
2023-02-07 00:13:00,,0823.9,5.00,0.00,22.7,21.1,00.0,31.6,24.5,10.9,0000.0,0005.37,0001.47,0000.96
2023-02-07 00:14:00,,0824.0,4.98,0.00,22.7,21.2,00.0,31.6,24.5,10.9,0000.0,0005.46,0001.49,0000.97
2023-02-07 00:15:00,,0823.9,5.05,0.00,22.7,21.1,00.0,31.6,24.5,10.9,0000.0,0004.84,0001.46,0000.96
2023-02-07 00:16:00,,0823.9,4.98,0.00,22.7,21.2,00.0,31.6,24.5,10.8,0000.0,0004.33,0001.41,0000.95
2023-02-07 00:17:00,,0824.0,4.99,0.00,22.7,21.2,00.0,31.6,24.5,10.8,0000.0,0004.09,0001.39,0000.92
2023-02-07 00:18:00,,0824.0,5.05,0.00,22.7,21.2,00.0,31.6,24.5,10.7,0000.0,0003.09,0001.33,0000.89
2023-02-07 00:19:00,,0824.1,4.98,0.00,22.7,21.2,00.0,31.6,24.5,10.7,0000.0,0002.47,0001.29,0000.88
2023-02-07 00:20:00,,0824.1,4.97,0.00,22.7,21.2,00.0,31.6,24.5,10.8,0000.0,0002.42,0001.27,0000.88
2023-02-07 00:21:00,,0824.1,4.96,0.00,22.7,21.2,00.0,31.6,24.5,10.8,0000.0,0002.25,0001.25,0000.86
2023-02-07 00:22:00,,0824.1,5.03,0.00,22.7,21.2,00.0,31.6,24.5,11.0,0000.0,0002.33,0001.28,0000.85
2023-02-07 00:23:00,,0824.1,5.00,0.00,22.7,21.1,00.0,31.6,24.5,11.0,0000.0,0002.33,0001.27,0000.83
2023-02-07 00:24:00,,0824.1,4.96,0.00,22.7,21.0,00.0,31.6,24.4,11.0,0000.0,0002.47,0001.20,0000.82
2023-02-07 00:25:00,,0824.1,5.06,0.00,22.6,20.9,00.0,31.5,24.4,11.0,0000.0,0002.51,0001.17,0000.81
2023-02-07 00:26:00,,0824.2,4.98,0.00,22.6,20.9,00.0,31.5,24.3,11.0,0000.0,0002.56,0001.17,0000.80
2023-02-07 00:27:00,,0824.1,4.95,0.00,22.6,20.8,00.0,31.5,24.3,10.9,0000.0,0002.39,0001.15,0000.80
2023-02-07 00:28:00,,0824.2,5.02,0.00,22.5,20.8,00.0,31.5,24.2,11.1,0000.0,0002.31,0001.11,0000.80
2023-02-07 00:29:00,,0824.1,5.03,0.00,22.5,20.6,00.0,31.5,24.1,11.1,0000.0,0002.26,0001.10,0000.80
2023-02-07 00:30:00,,0824.2,4.95,0.00,22.5,20.6,00.0,31.5,24.1,11.1,0000.0,0002.32,0001.12,0000.80
2023-02-07 00:31:00,,0824.2,5.08,0.00,22.4,20.5,00.0,31.4,24.1,11.0,0000.0,0002.38,0001.14,0000.79
2023-02-07 00:32:00,,0824.2,4.98,0.00,22.4,20.4,00.0,31.4,24.1,11.1,0000.0,0002.39,0001.14,0000.79
2023-02-07 00:33:00,,0824.2,4.96,0.00,22.3,20.4,00.0,31.4,24.0,11.2,0000.0,0002.34,0001.10,0000.79
2023-02-07 00:34:00,,0824.3,5.01,0.00,22.3,20.4,00.0,31.4,24.0,11.2,0000.0,0002.37,0001.12,0000.80
2023-02-07 00:35:00,,0824.3,5.00,0.00,22.3,20.3,00.0,31.4,24.0,11.2,0000.0,0002.12,0001.11,0000.79
2023-02-07 00:36:00,,0824.2,4.99,0.00,22.3,20.3,00.0,31.3,23.9,11.4,0000.0,0002.06,0001.12,0000.79
2023-02-07 00:37:00,,0824.2,4.97,0.00,22.2,20.3,00.0,31.3,23.9,11.5,0000.0,0001.95,0001.12,0000.81
2023-02-07 00:38:00,,0824.3,5.07,0.00,22.2,20.2,00.0,31.3,23.8,11.6,0000.0,0002.02,0001.15,0000.81
2023-02-07 00:39:00,,0824.3,4.97,0.00,22.2,20.1,00.0,31.2,23.8,11.6,0000.0,0002.04,0001.16,0000.82
2023-02-07 00:40:00,,0824.3,5.04,0.00,22.1,20.1,00.0,31.2,23.8,11.7,0000.0,0002.02,0001.14,0000.82
2023-02-07 00:41:00,,0824.3,5.00,0.00,22.1,20.0,00.0,31.2,23.7,11.8,0000.0,0002.02,0001.14,0000.82
2023-02-07 00:42:00,,0824.3,4.96,0.00,22.0,19.9,00.0,31.2,23.6,11.8,0000.0,0001.96,0001.12,0000.83
2023-02-07 00:43:00,,0824.4,5.03,0.00,22.0,19.7,00.0,31.1,23.5,11.9,0000.0,0001.96,0001.13,0000.85
2023-02-07 00:44:00,,0824.5,4.99,0.00,21.9,19.6,00.0,31.1,23.4,11.9,0000.0,0001.90,0001.12,0000.85
2023-02-07 00:45:00,,0824.4,4.97,0.00,21.8,19.5,00.0,31.1,23.3,11.9,0000.0,0001.75,0001.08,0000.86
2023-02-07 00:46:00,,0824.5,5.07,0.00,21.8,19.4,00.0,31.0,23.3,12.0,0000.0,0001.82,0001.10,0000.87
2023-02-07 00:47:00,,0824.4,4.97,0.00,21.7,19.4,00.0,31.0,23.2,12.0,0000.0,0001.85,0001.12,0000.87
2023-02-07 00:48:00,,0824.6,4.97,0.00,21.7,19.3,00.0,30.9,23.2,12.1,0000.0,0001.76,0001.09,0000.86
2023-02-07 00:49:00,,0824.7,5.06,0.00,21.7,19.3,00.0,30.9,23.2,12.1,0000.0,0001.74,0001.07,0000.85
2023-02-07 00:50:00,,0824.7,4.98,0.00,21.6,19.4,00.0,30.8,23.1,12.2,0000.0,0001.74,0001.07,0000.84
2023-02-07 00:51:00,,0824.6,4.97,0.00,21.7,20.3,00.0,30.7,23.4,12.2,0000.0,0001.87,0001.12,0000.85
2023-02-07 00:52:00,,0824.6,5.04,0.00,21.8,21.5,00.0,30.7,23.7,12.1,0000.0,0001.99,0001.14,0000.85
2023-02-07 00:53:00,,0824.7,4.99,0.00,21.9,22.4,00.0,30.7,23.9,12.1,0000.0,0002.04,0001.15,0000.84
2023-02-07 00:54:00,,0824.7,4.98,0.00,22.0,22.0,00.0,30.8,23.9,12.1,0000.0,0002.17,0001.20,0000.84
2023-02-07 00:55:00,,0824.6,5.00,0.00,21.9,21.4,00.0,30.8,23.7,12.1,0000.0,0002.24,0001.23,0000.83
2023-02-07 00:56:00,,0824.7,4.98,0.00,21.9,20.8,00.0,30.8,23.6,12.2,0000.0,0002.33,0001.26,0000.83
2023-02-07 00:57:00,,0824.7,5.00,0.00,21.9,20.5,00.0,30.8,23.5,12.3,0000.0,0002.44,0001.25,0000.83
2023-02-07 00:58:00,,0824.7,5.03,0.00,21.8,20.2,00.0,30.8,23.4,12.2,0000.0,0002.38,0001.22,0000.83
2023-02-07 00:59:00,,0824.7,4.96,0.00,21.8,20.0,00.0,30.8,23.4,12.3,0000.0,0002.44,0001.25,0000.83
